SCP
0 0 0 0 0 0 0 0 0 0 0 0 0 0 0 0 0 0 0 0 -0 -0 -0 -0 -0 -0 -0 -0 -0 -1 -1 -1 -0 -0 -0 -0 -0 -0 -0 -0 -0 0 0 0 0 0 0 0 0
0 0 0 0 0 0 0 0 0 0 0 0 0 0 0 0 0 0 0 0 -0 -0 -0 -0 -0 -0 -0 -0 -0 -0 -1 -1 -0 -0 -0 -0 -0 -0 -0 -0 -0 -0 -0 -0 0 0 0 0 0
0 0 0 0 0 0 0 0 0 0 0 0 0 0 0 0 0 -0 -0 -0 -0 -0 -0 -0 -0 -0 -0 -0 -0 -0 -0 -0 -0 -0 -0 -0 -0 -0 0 0 -0 -0 -0 -0 0 0 0 0 0
0 0 0 0 0 0 0 0 0 0 0 0 0 0 0 0 0 0 -0 -0 -0 -0 -0 -0 -0 -0 -0 -0 -0 -0 -0 -0 -0 -0 -0 -0 -0 0 0 0 -0 -0 -0 -0 0 0 0 0 0
0 0 0 0 0 0 0 0 0 0 0 0 0 0 1 1 1 0 -0 -0 -0 -0 -0 -0 -0 -0 -0 -0 -0 0 -0 -0 -0 -0 -0 0 0 0 0 0 0 -0 -0 0 0 0 0 0 0
0 0 0 0 0 0 0 0 0 0 0 0 0 0 1 1 0 0 0 0 0 0 -0 0 0 0 0 0 0 0 0 -0 0 0 0 0 0 0 0 0 0 0 0 0 0 0 0 0 0
0 0 0 0 0 0 0 0 0 0 0 0 0 0 1 1 1 0 0 0 0 0 0 0 0 0 0 0 0 0 0 0 0 0 0 0 0 0 0 0 0 0 0 0 0 0 0 0 0
0 0 0 0 0 0 0 0 0 0 0 0 0 0 0 1 1 0 0 0 0 0 0 0 0 0 0 0 0 0 0 0 0 0 0 0 0 0 0 0 0 0 0 0 0 0 0 0 0
0 0 0 0 0 0 0 0 0 0 0 0 0 0 0 1 1 0 0 0 0 0 0 0 0 0 0 0 0 0 0 0 0 0 0 0 0 0 0 0 0 0 0 0 0 0 0 0 0
0 0 0 0 0 0 0 0 0 0 0 0 0 1 1 0 1 1 0 0 0 0 0 0 0 0 0 0 0 0 0 0 0 0 0 0 0 0 0 0 0 0 0 0 0 0 0 0 0
0 0 0 0 0 0 0 0 0 0 0 0 0 0 1 1 0 0 0 0 0 0 0 0 0 0 0 0 0 0 0 0 0 0 0 0 0 0 0 0 0 0 0 0 0 0 0 0 0
0 0 0 0 0 0 0 0 0 0 0 0 0 0 1 0 0 0 0 1 0 0 0 0 0 0 0 0 0 0 0 0 0 0 1 0 0 0 0 0 0 0 0 0 0 0 0 0 0
0 0 0 0 0 0 0 0 0 0 0 0 0 0 0 1 1 1 1 1 1 0 0 0 0 1 1 1 1 0 1 0 0 1 1 0 0 0 0 0 0 0 0 0 0 0 0 0 0
-0 0 0 0 0 0 0 0 0 0 0 0 0 0 0 0 0 0 0 0 0 0 0 0 1 1 1 1 1 1 1 1 0 1 1 0 0 0 0 0 0 0 1 1 1 1 1 1 1
0 -0 -0 0 0 0 0 0 0 0 0 0 0 0 0 0 0 0 0 0 0 0 0 1 1 1 1 2 2 1 1 1 1 1 1 1 1 1 0 0 0 0 0 0 1 1 1 1 1
0 0 -0 -0 -0 0 0 0 0 0 0 0 0 0 0 0 0 0 0 0 0 0 0 1 1 1 2 2 2 2 1 1 1 1 1 1 1 0 1 1 1 1 1 1 1 1 1 1 1
0 0 -0 -0 -0 -0 0 0 0 0 0 0 0 0 0 0 0 0 0 0 0 0 0 0 1 1 1 1 1 1 1 1 1 1 1 1 1 1 1 1 1 2 1 1 1 1 1 1 1
0 0 0 -0 -0 -0 -0 -0 0 0 0 0 0 0 0 0 0 0 0 0 0 0 0 0 0 1 1 1 1 1 1 1 1 1 2 1 1 1 1 1 2 2 2 2 2 2 1 1 1
0 -0 0 0 0 0 0 0 0 0 0 0 0 0 0 0 0 0 0 0 0 0 0 0 0 1 1 1 2 1 1 1 1 1 1 1 1 1 1 1 2 1 2 2 2 2 1 1 1
0 0 0 0 0 0 -0 0 0 0 0 0 0 0 0 0 0 0 0 0 0 0 0 0 0 1 1 1 1 1 1 1 1 1 1 1 1 2 2 1 1 1 1 1 1 1 1 1 1
0 0 0 0 0 0 0 0 0 0 0 0 0 0 0 0 0 0 0 0 0 0 0 0 0 0 1 1 2 1 1 2 2 2 2 3 2 2 2 2 2 2 2 1 2 2 2 1 1
0 0 0 0 0 0 0 0 0 0 0 0 0 0 0 0 0 0 0 0 0 0 0 0 0 0 1 1 2 2 1 1 2 3 4 4 3 2 2 2 1 1 1 1 1 1 1 1 1
0 0 0 0 0 0 0 0 0 0 0 0 0 0 0 0 0 0 0 0 0 0 0 0 0 1 1 2 2 2 2 3 3 3 2 1 1 1 1 1 1 1 0 1 1 1 1 1 1
0 0 0 0 0 0 0 0 0 0 0 0 0 0 0 0 0 0 0 0 0 0 0 0 1 1 1 2 2 3 3 3 2 1 1 1 1 1 1 0 1 0 0 0 0 0 0 0 1
0 0 0 0 0 0 0 0 0 0 0 0 0 0 0 0 0 0 0 0 0 0 0 0 1 1 1 1 1 2 2 2 1 1 1 0 0 0 1 0 0 0 0 0 0 0 0 0 0
0 0 0 0 0 0 0 0 0 0 0 0 0 0 0 0 0 0 0 0 0 0 0 0 0 0 0 0 0 0 1 0 0 1 0 0 0 0 0 1 0 0 0 0 0 0 0 0 0
0 0 0 0 0 0 0 0 0 0 0 0 0 0 0 0 0 0 0 0 0 0 0 0 0 0 0 0 0 0 0 0 0 1 1 0 0 0 0 0 0 0 0 0 0 0 0 0 0
0 0 0 0 0 0 0 0 0 0 0 0 0 0 0 0 0 0 0 0 0 0 0 0 0 0 0 0 0 0 0 0 0 0 0 0 0 0 0 0 0 0 0 0 1 1 1 0 0
0 0 0 0 0 0 0 0 0 0 0 0 0 0 0 0 0 0 0 0 0 0 0 0 0 0 0 0 0 0 0 0 0 0 0 0 0 0 0 0 0 0 1 1 1 1 0 0 1
0 0 0 0 0 0 0 0 0 0 0 0 0 0 0 0 0 0 0 0 0 0 0 0 0 0 0 0 0 0 0 0 0 0 0 0 0 0 0 0 0 0 0 0 1 0 0 0 0
Wind_Speed_500mb
4 11 8 8 14 13 21 11 2 6 2 8 18 11 14 13 20 9 15 22 35 39 40 40 42 38 36 34 32 35 38 37 35 32 25 19 16 16 26 29 28 26 21 16 13 13 13 12 10
6 8 7 12 16 20 21 10 21 4 9 15 6 12 11 14 11 12 25 27 38 37 41 40 38 37 34 33 33 35 35 35 33 28 23 20 16 20 28 28 25 22 18 15 13 12 12 11 9
5 8 17 10 22 25 16 19 10 0 5 4 5 2 5 9 8 25 20 35 40 37 38 39 37 35 33 32 32 34 33 33 31 27 23 19 19 22 28 26 23 20 16 13 12 11 10 8 6
7 14 12 19 29 29 15 16 4 5 7 1 5 8 11 13 15 14 30 39 39 36 36 37 36 34 31 30 30 32 32 31 28 24 21 20 21 25 27 25 21 17 14 12 11 11 9 7 5
11 15 18 27 36 10 16 9 8 9 6 6 11 13 10 11 18 25 29 38 39 36 34 37 35 33 30 29 27 29 30 28 25 21 21 23 24 25 24 22 19 15 13 11 10 9 8 8 8
20 22 19 29 33 22 13 15 16 15 9 7 14 11 17 16 20 29 29 35 36 35 34 37 36 34 31 29 28 27 26 24 22 21 24 25 25 25 23 21 18 15 13 12 10 8 9 9 10
23 21 31 28 22 22 17 9 18 10 9 9 6 17 16 20 22 29 29 33 37 34 33 34 36 36 32 31 29 25 23 22 23 23 26 26 25 24 22 21 18 16 14 12 10 9 10 10 11
13 16 32 19 24 25 9 13 6 11 3 8 7 13 27 26 26 28 27 32 35 33 31 32 36 37 35 33 32 27 22 21 24 25 27 27 26 25 24 22 20 18 16 14 13 13 12 12 14
2 13 22 27 22 13 10 11 2 13 13 4 3 3 10 25 30 30 30 32 33 32 32 31 32 34 33 32 34 31 28 25 26 28 29 28 26 26 26 25 22 21 20 19 18 17 16 16 16
13 16 18 6 15 12 5 12 16 14 9 8 10 2 13 24 31 29 31 33 34 33 33 32 33 34 34 31 33 38 36 33 32 33 33 31 25 24 22 26 24 25 23 22 21 20 19 19 16
46 31 15 20 29 39 32 14 13 22 17 7 9 5 11 21 29 29 27 26 29 29 31 33 36 37 36 33 32 33 33 34 37 38 38 35 28 28 30 23 26 28 25 23 23 24 22 19 20
28 51 23 25 34 39 27 15 26 26 33 10 10 8 9 22 29 29 27 26 27 29 32 34 36 42 43 35 36 35 36 36 35 38 43 38 38 34 30 24 23 24 21 20 23 20 23 28 30
38 33 20 16 36 46 50 49 40 41 35 28 23 12 14 19 24 27 25 23 25 30 32 34 36 39 44 51 40 39 38 37 34 35 39 41 36 33 30 30 26 24 23 23 22 24 26 26 27
41 33 22 24 38 49 57 42 42 41 26 31 26 20 19 19 23 23 26 27 28 30 33 33 38 41 45 49 51 39 39 37 37 35 34 41 38 35 30 31 32 29 27 27 26 26 27 27 28
25 29 19 31 38 28 59 54 48 52 40 38 32 26 20 24 23 24 23 23 24 27 28 35 39 41 47 54 54 50 41 40 38 36 37 38 33 33 30 28 28 28 28 31 35 38 33 32 32
39 30 31 38 37 45 36 49 43 45 34 34 33 28 20 21 25 27 26 26 28 31 33 33 34 38 46 52 54 50 43 40 39 36 32 39 29 33 33 32 30 27 24 23 23 25 27 28 29
32 29 41 25 54 43 44 50 49 32 29 31 24 27 24 22 24 29 36 38 37 41 42 43 41 39 39 43 48 46 42 41 36 36 34 38 37 39 33 26 23 31 27 24 26 26 28 30 29
33 36 34 36 40 48 39 45 37 25 25 27 29 26 19 18 28 36 36 38 41 45 47 49 50 45 42 36 41 41 41 43 40 38 36 35 36 39 41 28 27 27 24 24 26 28 28 31 31
29 35 24 29 22 42 39 39 34 26 23 21 21 10 8 11 13 13 21 26 34 42 49 53 55 51 48 42 35 37 42 41 42 39 39 39 38 37 37 30 28 28 29 29 29 27 28 29 30
23 28 33 26 23 27 35 31 32 18 24 14 7 6 2 8 9 9 7 6 19 28 34 46 58 54 55 41 37 31 32 35 36 35 36 44 43 41 41 36 29 28 27 29 28 31 27 30 28
28 29 23 16 17 23 14 29 28 25 17 16 11 5 6 11 15 16 15 8 10 12 15 21 37 49 48 45 38 38 31 33 34 33 31 39 37 40 37 32 27 26 25 24 26 30 34 30 30
31 23 19 20 16 22 27 20 27 31 24 16 8 7 11 14 17 19 19 15 9 12 17 21 31 40 46 52 38 41 31 31 31 31 31 32 34 41 37 29 26 27 22 24 23 23 23 29 31
16 14 23 23 22 21 22 16 19 19 22 23 7 12 16 17 20 22 23 23 21 14 13 19 29 35 35 42 39 35 34 33 32 27 33 31 37 33 24 23 25 25 19 23 27 28 27 28 34
8 17 12 13 17 22 32 23 24 28 24 16 11 15 15 16 19 24 26 26 26 24 21 11 4 7 12 17 20 26 29 29 26 25 20 20 20 24 24 21 22 26 26 29 28 29 32 34 37
27 24 14 16 18 18 13 14 13 19 12 8 16 18 18 18 20 22 24 28 32 33 30 29 26 24 21 19 18 14 16 17 20 19 16 17 19 20 23 22 28 26 29 29 27 26 25 28 31
32 29 14 18 16 15 15 13 11 14 17 18 17 16 13 14 15 18 21 22 25 30 32 31 28 26 22 19 17 14 13 6 6 9 13 14 19 23 26 31 32 35 34 34 35 31 32 30 30
24 23 8 12 3 14 11 13 12 15 16 17 15 12 10 7 8 8 9 10 11 14 16 15 15 13 10 7 4 2 4 7 11 18 21 23 29 30 33 36 38 41 41 41 43 40 41 41 40
18 20 15 18 15 23 15 13 12 30 27 21 19 11 6 4 1 1 3 2 1 4 4 4 8 6 9 11 12 14 19 24 28 33 38 41 43 44 48 47 44 45 46 47 47 51 50 50 48
15 20 15 12 9 13 16 3 16 19 25 23 15 4 4 9 10 9 9 5 2 3 4 8 10 11 12 12 16 20 25 29 35 39 42 44 48 51 52 48 48 51 54 56 60 64 63 61 61
10 16 17 15 18 15 18 19 10 5 19 14 12 3 13 13 10 9 5 2 3 5 6 11 13 15 17 19 22 27 32 34 37 42 46 49 53 55 55 53 55 57 59 63 66 66 69 70 74
Wind_Direction_500mb
290 295 293 251 244 237 236 190 158 220 197 351 312 261 353 2 357 38 142 148 158 160 170 177 171 171 171 166 164 165 171 172 173 172 171 172 176 172 158 154 152 152 150 152 151 146 139 130 119
270 268 243 254 252 217 209 140 193 186 337 327 276 199 236 76 49 100 135 152 152 160 167 175 174 173 172 170 168 170 174 175 177 179 182 185 192 172 160 156 154 153 154 158 156 149 145 140 132
239 211 235 232 240 246 239 177 140 232 343 4 221 229 36 60 70 132 144 150 154 159 169 176 176 176 175 176 174 176 178 180 182 185 191 197 186 169 163 161 159 159 162 162 155 156 160 158 154
224 202 220 238 237 235 310 138 171 226 160 290 204 178 106 98 123 139 150 152 158 158 166 174 176 178 179 179 179 183 184 184 186 192 199 192 177 168 167 167 168 169 170 169 169 174 181 188 199
235 225 223 225 237 232 239 253 280 245 225 229 200 137 107 118 122 140 149 157 159 162 167 176 177 181 182 183 185 188 187 189 193 199 195 183 174 172 173 175 180 182 185 187 188 191 201 220 231
225 248 213 224 221 229 240 245 264 246 236 192 202 187 129 146 132 148 153 158 164 165 168 179 180 184 184 186 188 190 193 199 201 198 187 181 179 179 181 187 193 196 199 205 208 213 221 233 252
259 224 224 230 243 222 232 234 231 276 235 159 310 201 121 156 157 154 156 161 167 167 168 182 186 187 188 189 191 194 201 208 205 195 187 185 187 190 194 202 208 212 216 220 227 236 242 253 265
275 272 222 213 219 225 154 228 239 274 102 285 193 213 169 165 154 156 159 163 167 169 175 178 187 192 194 194 196 199 203 206 203 199 197 199 202 205 209 215 219 222 229 233 238 244 252 250 261
189 245 220 205 215 212 169 240 250 301 267 257 178 16 80 158 156 156 158 164 169 173 181 180 184 190 191 197 204 203 207 208 207 206 206 208 212 218 222 224 226 229 232 236 241 247 254 264 269
182 244 228 300 313 267 142 277 318 295 255 163 175 100 131 158 165 167 168 171 176 180 184 188 188 193 192 197 205 210 214 214 213 212 215 213 209 215 214 230 231 235 238 243 249 256 261 264 265
207 233 261 285 292 283 271 268 288 292 248 81 62 98 177 174 178 179 178 177 182 188 188 192 198 202 199 202 205 206 210 211 216 218 220 216 215 225 228 230 240 242 245 251 261 260 262 253 248
217 231 244 278 290 307 268 279 278 280 281 288 310 335 192 193 193 191 189 185 189 198 199 200 208 216 214 207 213 212 211 214 215 219 225 219 225 227 220 225 227 235 234 236 240 246 247 261 271
225 203 228 297 282 285 282 279 278 277 273 273 277 276 220 203 205 206 204 209 208 211 210 209 214 225 226 222 217 214 217 221 219 220 227 228 229 228 232 231 229 230 237 244 244 251 255 264 271
203 205 218 277 284 287 286 278 274 263 261 260 245 251 227 215 207 200 205 211 217 221 221 218 230 236 235 235 226 221 219 220 221 223 224 232 230 230 232 239 242 238 240 243 247 254 257 261 261
160 198 202 226 270 268 290 275 266 259 259 260 235 235 239 226 217 215 219 223 227 230 224 223 229 237 242 238 236 230 226 225 226 228 226 236 238 240 237 231 236 239 236 241 252 258 264 267 264
213 231 208 212 211 261 264 272 270 246 246 238 231 224 223 230 236 238 241 240 240 233 230 224 225 231 246 245 243 234 229 227 225 227 227 237 231 230 233 228 233 236 242 241 245 248 257 259 261
200 214 225 196 192 216 222 251 265 241 233 240 232 225 227 238 238 245 245 242 243 245 237 237 237 239 244 244 237 234 228 226 225 226 225 233 225 233 233 235 232 244 248 250 244 249 252 256 262
189 216 195 212 185 203 220 245 252 221 235 227 230 240 247 261 262 256 244 239 238 240 239 240 240 242 242 238 236 229 227 229 225 225 226 238 230 235 244 244 239 244 245 247 248 247 248 255 258
197 207 191 209 175 195 219 216 235 218 219 214 214 220 281 320 317 283 249 247 241 237 236 241 238 237 240 244 228 224 228 225 224 224 227 233 233 229 235 234 242 245 244 245 246 251 261 261 265
205 210 198 191 183 219 200 226 237 207 217 225 196 186 26 335 351 350 331 265 240 237 237 244 236 231 236 238 233 229 233 225 221 219 221 229 232 233 233 235 237 245 250 260 258 260 257 266 264
204 214 182 201 190 223 249 238 220 227 212 169 138 100 45 6 1 2 7 343 265 254 235 232 229 230 236 231 238 234 229 212 215 213 220 228 232 237 240 243 240 242 253 254 260 264 267 262 264
209 209 247 221 206 232 197 250 200 212 205 185 146 64 38 26 21 24 22 14 337 272 253 243 236 236 238 241 226 230 220 226 222 211 211 216 234 238 241 237 241 248 241 248 261 266 259 267 270
232 189 214 226 222 245 188 246 172 186 203 162 113 70 52 43 39 33 32 27 21 1 297 261 246 245 234 239 224 231 226 223 214 201 218 212 228 230 224 232 240 245 248 257 257 261 267 263 272
166 183 170 211 221 224 225 213 206 182 219 130 98 76 75 70 59 50 43 43 41 41 41 38 8 279 262 249 233 225 226 218 204 199 191 189 197 211 225 236 248 262 264 264 266 266 271 270 261
199 193 189 208 207 237 119 209 273 104 123 137 124 108 92 82 72 63 58 53 52 54 60 62 71 78 87 100 109 127 149 159 164 155 177 193 216 219 240 253 255 254 262 251 258 261 267 269 269
199 202 235 227 214 199 143 239 126 115 132 133 124 115 101 78 67 59 60 65 67 68 69 70 72 76 77 84 96 107 118 151 154 186 199 222 236 251 251 261 263 270 257 260 262 263 264 259 267
167 223 327 284 284 281 225 115 131 160 159 157 135 111 85 71 65 55 58 61 65 67 72 69 71 70 78 75 43 328 277 264 256 261 265 261 257 256 255 250 248 251 250 252 259 263 257 264 268
269 167 195 218 258 250 234 244 279 177 176 165 157 127 91 52 27 333 9 29 69 57 35 7 33 346 298 289 277 275 263 263 263 261 259 258 257 259 256 247 250 249 250 250 249 257 263 258 259
175 208 232 301 288 251 264 207 36 176 180 183 160 140 347 326 317 320 337 344 44 49 8 14 6 357 343 325 304 292 287 290 286 281 277 274 272 271 266 262 260 257 257 255 253 252 253 254 257
315 292 212 222 237 252 283 284 66 100 159 186 197 272 345 334 331 333 334 15 16 12 359 346 348 337 332 325 317 303 295 291 287 285 283 281 279 276 273 270 265 262 259 256 254 255 255 255 254
Wind_Speed_850mb
4 11 8 8 14 13 21 11 2 6 2 8 18 11 14 13 20 9 15 22 35 39 40 40 42 38 36 34 32 35 38 37 35 32 25 19 16 16 26 29 28 26 21 16 13 13 13 12 10
6 8 7 12 16 20 21 10 21 4 9 15 6 12 11 14 11 12 25 27 38 37 41 40 38 37 34 33 33 35 35 35 33 28 23 20 16 20 28 28 25 22 18 15 13 12 12 11 9
5 8 17 10 22 25 16 19 10 0 5 4 5 2 5 9 8 25 20 35 40 37 38 39 37 35 33 32 32 34 33 33 31 27 23 19 19 22 28 26 23 20 16 13 12 11 10 8 6
7 14 12 19 29 29 15 16 4 5 7 1 5 8 11 13 15 14 30 39 39 36 36 37 36 34 31 30 30 32 32 31 28 24 21 20 21 25 27 25 21 17 14 12 11 11 9 7 5
11 15 18 27 36 10 16 9 8 9 6 6 11 13 10 11 18 25 29 38 39 36 34 37 35 33 30 29 27 29 30 28 25 21 21 23 24 25 24 22 19 15 13 11 10 9 8 8 8
20 22 19 29 33 22 13 15 16 15 9 7 14 11 17 16 20 29 29 35 36 35 34 37 36 34 31 29 28 27 26 24 22 21 24 25 25 25 23 21 18 15 13 12 10 8 9 9 10
23 21 31 28 22 22 17 9 18 10 9 9 6 17 16 20 22 29 29 33 37 34 33 34 36 36 32 31 29 25 23 22 23 23 26 26 25 24 22 21 18 16 14 12 10 9 10 10 11
13 16 32 19 24 25 9 13 6 11 3 8 7 13 27 26 26 28 27 32 35 33 31 32 36 37 35 33 32 27 22 21 24 25 27 27 26 25 24 22 20 18 16 14 13 13 12 12 14
2 13 22 27 22 13 10 11 2 13 13 4 3 3 10 25 30 30 30 32 33 32 32 31 32 34 33 32 34 31 28 25 26 28 29 28 26 26 26 25 22 21 20 19 18 17 16 16 16
13 16 18 6 15 12 5 12 16 14 9 8 10 2 13 24 31 29 31 33 34 33 33 32 33 34 34 31 33 38 36 33 32 33 33 31 25 24 22 26 24 25 23 22 21 20 19 19 16
46 31 15 20 29 39 32 14 13 22 17 7 9 5 11 21 29 29 27 26 29 29 31 33 36 37 36 33 32 33 33 34 37 38 38 35 28 28 30 23 26 28 25 23 23 24 22 19 20
28 51 23 25 34 39 27 15 26 26 33 10 10 8 9 22 29 29 27 26 27 29 32 34 36 42 43 35 36 35 36 36 35 38 43 38 38 34 30 24 23 24 21 20 23 20 23 28 30
38 33 20 16 36 46 50 49 40 41 35 28 23 12 14 19 24 27 25 23 25 30 32 34 36 39 44 51 40 39 38 37 34 35 39 41 36 33 30 30 26 24 23 23 22 24 26 26 27
41 33 22 24 38 49 57 42 42 41 26 31 26 20 19 19 23 23 26 27 28 30 33 33 38 41 45 49 51 39 39 37 37 35 34 41 38 35 30 31 32 29 27 27 26 26 27 27 28
25 29 19 31 38 28 59 54 48 52 40 38 32 26 20 24 23 24 23 23 24 27 28 35 39 41 47 54 54 50 41 40 38 36 37 38 33 33 30 28 28 28 28 31 35 38 33 32 32
39 30 31 38 37 45 36 49 43 45 34 34 33 28 20 21 25 27 26 26 28 31 33 33 34 38 46 52 54 50 43 40 39 36 32 39 29 33 33 32 30 27 24 23 23 25 27 28 29
32 29 41 25 54 43 44 50 49 32 29 31 24 27 24 22 24 29 36 38 37 41 42 43 41 39 39 43 48 46 42 41 36 36 34 38 37 39 33 26 23 31 27 24 26 26 28 30 29
33 36 34 36 40 48 39 45 37 25 25 27 29 26 19 18 28 36 36 38 41 45 47 49 50 45 42 36 41 41 41 43 40 38 36 35 36 39 41 28 27 27 24 24 26 28 28 31 31
29 35 24 29 22 42 39 39 34 26 23 21 21 10 8 11 13 13 21 26 34 42 49 53 55 51 48 42 35 37 42 41 42 39 39 39 38 37 37 30 28 28 29 29 29 27 28 29 30
23 28 33 26 23 27 35 31 32 18 24 14 7 6 2 8 9 9 7 6 19 28 34 46 58 54 55 41 37 31 32 35 36 35 36 44 43 41 41 36 29 28 27 29 28 31 27 30 28
28 29 23 16 17 23 14 29 28 25 17 16 11 5 6 11 15 16 15 8 10 12 15 21 37 49 48 45 38 38 31 33 34 33 31 39 37 40 37 32 27 26 25 24 26 30 34 30 30
31 23 19 20 16 22 27 20 27 31 24 16 8 7 11 14 17 19 19 15 9 12 17 21 31 40 46 52 38 41 31 31 31 31 31 32 34 41 37 29 26 27 22 24 23 23 23 29 31
16 14 23 23 22 21 22 16 19 19 22 23 7 12 16 17 20 22 23 23 21 14 13 19 29 35 35 42 39 35 34 33 32 27 33 31 37 33 24 23 25 25 19 23 27 28 27 28 34
8 17 12 13 17 22 32 23 24 28 24 16 11 15 15 16 19 24 26 26 26 24 21 11 4 7 12 17 20 26 29 29 26 25 20 20 20 24 24 21 22 26 26 29 28 29 32 34 37
27 24 14 16 18 18 13 14 13 19 12 8 16 18 18 18 20 22 24 28 32 33 30 29 26 24 21 19 18 14 16 17 20 19 16 17 19 20 23 22 28 26 29 29 27 26 25 28 31
32 29 14 18 16 15 15 13 11 14 17 18 17 16 13 14 15 18 21 22 25 30 32 31 28 26 22 19 17 14 13 6 6 9 13 14 19 23 26 31 32 35 34 34 35 31 32 30 30
24 23 8 12 3 14 11 13 12 15 16 17 15 12 10 7 8 8 9 10 11 14 16 15 15 13 10 7 4 2 4 7 11 18 21 23 29 30 33 36 38 41 41 41 43 40 41 41 40
18 20 15 18 15 23 15 13 12 30 27 21 19 11 6 4 1 1 3 2 1 4 4 4 8 6 9 11 12 14 19 24 28 33 38 41 43 44 48 47 44 45 46 47 47 51 50 50 48
15 20 15 12 9 13 16 3 16 19 25 23 15 4 4 9 10 9 9 5 2 3 4 8 10 11 12 12 16 20 25 29 35 39 42 44 48 51 52 48 48 51 54 56 60 64 63 61 61
10 16 17 15 18 15 18 19 10 5 19 14 12 3 13 13 10 9 5 2 3 5 6 11 13 15 17 19 22 27 32 34 37 42 46 49 53 55 55 53 55 57 59 63 66 66 69 70 74
Wind_Direction_850mb
290 295 293 251 244 237 236 190 158 220 197 351 312 261 353 2 357 38 142 148 158 160 170 177 171 171 171 166 164 165 171 172 173 172 171 172 176 172 158 154 152 152 150 152 151 146 139 130 119
270 268 243 254 252 217 209 140 193 186 337 327 276 199 236 76 49 100 135 152 152 160 167 175 174 173 172 170 168 170 174 175 177 179 182 185 192 172 160 156 154 153 154 158 156 149 145 140 132
239 211 235 232 240 246 239 177 140 232 343 4 221 229 36 60 70 132 144 150 154 159 169 176 176 176 175 176 174 176 178 180 182 185 191 197 186 169 163 161 159 159 162 162 155 156 160 158 154
224 202 220 238 237 235 310 138 171 226 160 290 204 178 106 98 123 139 150 152 158 158 166 174 176 178 179 179 179 183 184 184 186 192 199 192 177 168 167 167 168 169 170 169 169 174 181 188 199
235 225 223 225 237 232 239 253 280 245 225 229 200 137 107 118 122 140 149 157 159 162 167 176 177 181 182 183 185 188 187 189 193 199 195 183 174 172 173 175 180 182 185 187 188 191 201 220 231
225 248 213 224 221 229 240 245 264 246 236 192 202 187 129 146 132 148 153 158 164 165 168 179 180 184 184 186 188 190 193 199 201 198 187 181 179 179 181 187 193 196 199 205 208 213 221 233 252
259 224 224 230 243 222 232 234 231 276 235 159 310 201 121 156 157 154 156 161 167 167 168 182 186 187 188 189 191 194 201 208 205 195 187 185 187 190 194 202 208 212 216 220 227 236 242 253 265
275 272 222 213 219 225 154 228 239 274 102 285 193 213 169 165 154 156 159 163 167 169 175 178 187 192 194 194 196 199 203 206 203 199 197 199 202 205 209 215 219 222 229 233 238 244 252 250 261
189 245 220 205 215 212 169 240 250 301 267 257 178 16 80 158 156 156 158 164 169 173 181 180 184 190 191 197 204 203 207 208 207 206 206 208 212 218 222 224 226 229 232 236 241 247 254 264 269
182 244 228 300 313 267 142 277 318 295 255 163 175 100 131 158 165 167 168 171 176 180 184 188 188 193 192 197 205 210 214 214 213 212 215 213 209 215 214 230 231 235 238 243 249 256 261 264 265
207 233 261 285 292 283 271 268 288 292 248 81 62 98 177 174 178 179 178 177 182 188 188 192 198 202 199 202 205 206 210 211 216 218 220 216 215 225 228 230 240 242 245 251 261 260 262 253 248
217 231 244 278 290 307 268 279 278 280 281 288 310 335 192 193 193 191 189 185 189 198 199 200 208 216 214 207 213 212 211 214 215 219 225 219 225 227 220 225 227 235 234 236 240 246 247 261 271
225 203 228 297 282 285 282 279 278 277 273 273 277 276 220 203 205 206 204 209 208 211 210 209 214 225 226 222 217 214 217 221 219 220 227 228 229 228 232 231 229 230 237 244 244 251 255 264 271
203 205 218 277 284 287 286 278 274 263 261 260 245 251 227 215 207 200 205 211 217 221 221 218 230 236 235 235 226 221 219 220 221 223 224 232 230 230 232 239 242 238 240 243 247 254 257 261 261
160 198 202 226 270 268 290 275 266 259 259 260 235 235 239 226 217 215 219 223 227 230 224 223 229 237 242 238 236 230 226 225 226 228 226 236 238 240 237 231 236 239 236 241 252 258 264 267 264
213 231 208 212 211 261 264 272 270 246 246 238 231 224 223 230 236 238 241 240 240 233 230 224 225 231 246 245 243 234 229 227 225 227 227 237 231 230 233 228 233 236 242 241 245 248 257 259 261
200 214 225 196 192 216 222 251 265 241 233 240 232 225 227 238 238 245 245 242 243 245 237 237 237 239 244 244 237 234 228 226 225 226 225 233 225 233 233 235 232 244 248 250 244 249 252 256 262
189 216 195 212 185 203 220 245 252 221 235 227 230 240 247 261 262 256 244 239 238 240 239 240 240 242 242 238 236 229 227 229 225 225 226 238 230 235 244 244 239 244 245 247 248 247 248 255 258
197 207 191 209 175 195 219 216 235 218 219 214 214 220 281 320 317 283 249 247 241 237 236 241 238 237 240 244 228 224 228 225 224 224 227 233 233 229 235 234 242 245 244 245 246 251 261 261 265
205 210 198 191 183 219 200 226 237 207 217 225 196 186 26 335 351 350 331 265 240 237 237 244 236 231 236 238 233 229 233 225 221 219 221 229 232 233 233 235 237 245 250 260 258 260 257 266 264
204 214 182 201 190 223 249 238 220 227 212 169 138 100 45 6 1 2 7 343 265 254 235 232 229 230 236 231 238 234 229 212 215 213 220 228 232 237 240 243 240 242 253 254 260 264 267 262 264
209 209 247 221 206 232 197 250 200 212 205 185 146 64 38 26 21 24 22 14 337 272 253 243 236 236 238 241 226 230 220 226 222 211 211 216 234 238 241 237 241 248 241 248 261 266 259 267 270
232 189 214 226 222 245 188 246 172 186 203 162 113 70 52 43 39 33 32 27 21 1 297 261 246 245 234 239 224 231 226 223 214 201 218 212 228 230 224 232 240 245 248 257 257 261 267 263 272
166 183 170 211 221 224 225 213 206 182 219 130 98 76 75 70 59 50 43 43 41 41 41 38 8 279 262 249 233 225 226 218 204 199 191 189 197 211 225 236 248 262 264 264 266 266 271 270 261
199 193 189 208 207 237 119 209 273 104 123 137 124 108 92 82 72 63 58 53 52 54 60 62 71 78 87 100 109 127 149 159 164 155 177 193 216 219 240 253 255 254 262 251 258 261 267 269 269
199 202 235 227 214 199 143 239 126 115 132 133 124 115 101 78 67 59 60 65 67 68 69 70 72 76 77 84 96 107 118 151 154 186 199 222 236 251 251 261 263 270 257 260 262 263 264 259 267
167 223 327 284 284 281 225 115 131 160 159 157 135 111 85 71 65 55 58 61 65 67 72 69 71 70 78 75 43 328 277 264 256 261 265 261 257 256 255 250 248 251 250 252 259 263 257 264 268
269 167 195 218 258 250 234 244 279 177 176 165 157 127 91 52 27 333 9 29 69 57 35 7 33 346 298 289 277 275 263 263 263 261 259 258 257 259 256 247 250 249 250 250 249 257 263 258 259
175 208 232 301 288 251 264 207 36 176 180 183 160 140 347 326 317 320 337 344 44 49 8 14 6 357 343 325 304 292 287 290 286 281 277 274 272 271 266 262 260 257 257 255 253 252 253 254 257
315 292 212 222 237 252 283 284 66 100 159 186 197 272 345 334 331 333 334 15 16 12 359 346 348 337 332 325 317 303 295 291 287 285 283 281 279 276 273 270 265 262 259 256 254 255 255 255 254